User: anonymous   Login
Location: Unspecified
(0.0000°N, 0.0000°E)
Time: 20:07:02
(UTC+00:00)
Language:

KUIPER-00091 - Orbit

View from above orbital plane
View from above orbital plane
View from above satellite
View from above satellite

Ground track
Ground track

The orbit is defined by the following mean orbital elements,

1 64836U          26145.45888674 +.00000000 +00000-0 +50807-3 0 00001
2 64836  51.9015 303.6305 0000564 102.3134 257.7891 14.79683257    00
Epoch (UTC): 25 May 2026 11:00:47
Eccentricity: 0.0000564
inclination: 51.9015°
perigee height: 630 km
apogee height: 631 km
right ascension of ascending node: 303.6305°
argument of perigee: 102.3134°
revolutions per day: 14.79683257
mean anomaly at epoch: 257.7891°

The dashed part of the orbit path shows where the satellite is in the earth's shadow,  

DLR